This demonstration page uses our WeatherBlox Daily Observations layout. Learn more.

Left ArrowRight Arrow

Hourly Observations for April 9, 2018

Temp ( °F °C ) Dew Point ( °F °C ) Humidity (%) Winds ( mph kmh ) Pressure ( in mb ) Visibility ( mi km ) Precip ( " mm )
12:53 am 00:53 Clear 50 10 45 7.2 83 83 N 5 7 30.15 1021 10 16 0.00 0.00
1:53 am 01:53 Clear 51 10.6 45 7.2 80 80 NW 3 6 30.14 1021 10 16 0.00 0.00
2:53 am 02:53 Clear 51 10.6 44 6.7 77 77 NNW 6 9 30.14 1021 10 16 0.00 0.00
3:53 am 03:53 Clear 52 11.1 42 5.6 69 69 NNW 6 9 30.12 1020 10 16 0.00 0.00
4:53 am 04:53 Clear 51 10.6 41 5 69 69 NNW 5 7 30.11 1020 10 16 0.00 0.00
5:53 am 05:53 Clear 50 10 41 5 71 71 NNW 7 11 30.10 1019 10 16 0.00 0.00
6:53 am 06:53 Sunny 52 11 39 4 62 62 NW 6 9 30.12 1020 10 16 0.00 0.00
7:53 am 07:53 Sunny 55 12.8 41 5 59 59 NW 3 6 30.09 1019 10 16 0.00 0.00
8:53 am 08:53 Sunny 63 17.2 39 3.9 41 41 N 12 19 30.08 1019 10 16 0.00 0.00
9:53 am 09:53 Sunny 67 19.4 38 3.3 35 35 N 12 19 30.06 1018 10 16 0.00 0.00
10:53 am 10:53 Sunny 70 21.1 39 3.9 32 32 N 14 22 30.06 1018 10 16 0.00 0.00
11:53 am 11:53 Sunny 74 23.3 41 5 31 31 N 12 19 30.04 1017 10 16 0.00 0.00
12:53 pm 12:53 Sunny 77 25 42 5.6 29 29 N 10 17 30.01 1016 10 16 0.00 0.00
1:53 pm 13:53 Sunny 78 25.6 39 3.9 25 25 W 3 6 29.98 1015 10 16 0.00 0.00
2:53 pm 14:53 Sunny 80 26.7 42 5.6 26 26 E 3 6 29.95 1014 10 16 0.00 0.00
3:53 pm 15:53 Sunny 79 26.1 44 6.7 29 29 SE 9 15 29.94 1014 10 16 0.00 0.00
4:53 pm 16:53 Sunny 77 25 47 8.3 35 35 SSE 8 13 29.91 1013 10 16 0.00 0.00
5:53 pm 17:53 Sunny 75 23.9 51 10.6 43 43 S 13 20 29.91 1013 10 16 0.00 0.00
6:53 pm 18:53 Sunny 72 22.2 52 11.1 50 50 SSE 9 15 29.93 1014 10 16 0.00 0.00
7:53 pm 19:53 Clear 66 18.9 52 11.1 61 61 SSE 9 15 29.93 1014 10 16 0.00 0.00
8:53 pm 20:53 Clear 65 18.3 52 11.1 63 63 SSW 5 7 29.96 1014 10 16 0.00 0.00
9:53 pm 21:53 Clear 65 18.3 52 11.1 63 63 Calm 29.98 1015 10 16 0.00 0.00
10:53 pm 22:53 Mostly Clear 64 17.8 53 11.7 68 68 NNW 3 6 29.97 1015 10 16 0.00 0.00
11:53 pm 23:53 Clear 62 16.7 54 12.2 75 75 ENE 3 6 29.95 1014 10 16 0.00 0.00

Powered by AerisWeather